Weather reports worldwide

Advertisment
Alghero, Italy (16520): temperature & dewpoint: 20.03.2019 20:00:00 - 26.03.2019 20:00:00 (CET)Alghero, Italy (16520): wind speed: 20.03.2019 20:00:00 - 26.03.2019 20:00:00 (CET)Alghero, Italy (16520): wind direction: 20.03.2019 20:00:00 - 26.03.2019 20:00:00 (CET)Alghero, Italy (16520): reduced air pressure: 20.03.2019 20:00:00 - 26.03.2019 20:00:00 (CET)Alghero, Italy (16520): visibility: 20.03.2019 20:00:00 - 26.03.2019 20:00:00 (CET)Alghero, Italy (16520): precipitation: 20.03.2019 20:00:00 - 26.03.2019 20:00:00 (CET)
Date & Time tt [°C] td [°C] ff [km/h] ff [kn] dd ppp [hPa] vv [km] rr [mm]
26.03.2019 20:00:00 8,0 7,0 9 5 NW - 9 -
26.03.2019 19:00:00 8,3 7,5 9 5 N 1014,9 10 -
26.03.2019 18:00:00 8,0 8,0 11 6 N - 9 -
26.03.2019 17:00:00 8,0 8,0 8 4 N - 9 -
26.03.2019 16:00:00 8,5 7,4 15 8 ENE 1013,5 9 0,0
26.03.2019 15:00:00 9,0 7,0 21 11 ENE - 10 -
26.03.2019 14:00:00 9,0 7,0 26 14 ENE - 10 -
26.03.2019 13:00:00 8,7 7,8 16 9 NE 1013,0 8 -
26.03.2019 12:00:00 8,0 7,0 16 9 ENE - 8 -
26.03.2019 11:00:00 9,0 7,0 24 13 ENE - 7 -
26.03.2019 10:00:00 9,8 7,8 28 15 ENE 1010,4 10 0,0
26.03.2019 09:00:00 13,0 10,0 8 4 ESE - 10 -
26.03.2019 08:00:00 12,0 10,0 9 5 SSE - 10 -
26.03.2019 07:00:00 11,8 8,1 13 7 SSW 1009,3 10 -
26.03.2019 06:00:00 12,0 7,0 11 6 SSW - 10 -
26.03.2019 05:00:00 11,0 7,0 9 5 WSW - 10 -
26.03.2019 04:00:00 11,5 5,8 13 7 W 1009,9 10 0,0
26.03.2019 03:00:00 12,0 5,0 26 14 W - 10 -
26.03.2019 02:00:00 12,0 5,0 24 13 W - 10 -
26.03.2019 01:00:00 12,9 5,6 21 11 W 1011,9 10 -
26.03.2019 00:00:00 13,0 8,0 18 10 WSW - 10 -
25.03.2019 23:00:00 13,0 9,0 16 9 WSW - 10 -
25.03.2019 22:00:00 10,9 7,1 8 4 S 1013,7 10 0,0
25.03.2019 21:00:00 10,0 7,0 11 6 SW - 10 -
25.03.2019 20:00:00 11,0 8,0 9 5 W - 10 -
25.03.2019 19:00:00 12,6 8,2 9 5 W 1014,3 10 -
25.03.2019 18:00:00 15,0 8,0 13 7 WNW - 10 -
25.03.2019 17:00:00 16,0 10,0 13 7 W - 10 -
25.03.2019 16:00:00 16,5 10,5 13 7 WSW 1015,4 10 0,0
25.03.2019 15:00:00 16,0 12,0 22 12 SSW - 10 -
25.03.2019 14:00:00 16,0 12,0 24 13 SSW - 10 -
25.03.2019 13:00:00 15,6 11,8 26 14 SSW 1017,3 10 -
25.03.2019 12:00:00 15,0 12,0 26 14 S - 10 -
25.03.2019 11:00:00 15,0 11,0 22 12 SSW - 10 -
25.03.2019 10:00:00 14,6 11,3 24 13 S 1018,8 10 0,0
25.03.2019 09:00:00 13,0 11,0 22 12 SSW - 10 -
25.03.2019 08:00:00 7,0 7,0 5 3 SSE - 10 -
25.03.2019 07:00:00 6,0 5,9 4 2 - 1019,1 10 -
25.03.2019 06:00:00 7,0 6,0 4 2 ENE - 10 -
25.03.2019 05:00:00 7,0 7,0 4 2 ENE - 10 -
25.03.2019 04:00:00 5,8 5,5 4 2 ESE 1019,9 10 0,0
25.03.2019 03:00:00 7,0 7,0 4 2 - - 10 -
25.03.2019 02:00:00 6,0 6,0 2 1 WNW - 10 -
25.03.2019 01:00:00 7,0 6,6 2 1 - 1021,3 10 -
25.03.2019 00:00:00 7,0 7,0 2 1 - - 10 -
24.03.2019 23:00:00 9,0 9,0 2 1 - - 10 -
24.03.2019 22:00:00 10,2 9,4 2 1 - 1022,0 10 0,0
24.03.2019 21:00:00 12,0 9,0 2 1 - - 10 -
24.03.2019 20:00:00 13,0 10,0 11 6 W - 10 -
24.03.2019 19:00:00 13,3 9,6 11 6 WNW 1021,7 10 -
24.03.2019 18:00:00 16,0 7,0 9 5 W - 10 -
24.03.2019 17:00:00 17,0 11,0 11 6 SSW - 10 -
24.03.2019 16:00:00 17,7 11,6 13 7 SSW 1021,8 10 0,0
24.03.2019 15:00:00 18,0 12,0 15 8 S - 10 -
24.03.2019 14:00:00 19,0 11,0 13 7 S - 10 -
24.03.2019 13:00:00 18,2 11,5 13 7 S 1023,6 10 -
24.03.2019 12:00:00 17,0 11,0 15 8 S - 10 -
24.03.2019 11:00:00 16,0 11,0 13 7 S - 10 -
24.03.2019 10:00:00 15,2 12,0 8 4 S 1024,1 10 0,0
24.03.2019 09:00:00 13,0 10,0 2 1 - - 10 -
24.03.2019 08:00:00 8,0 7,0 4 2 - - 10 -
24.03.2019 07:00:00 5,4 4,9 2 1 - 1023,5 9 -
24.03.2019 06:00:00 5,0 5,0 2 1 - - 9 -
24.03.2019 05:00:00 6,0 5,0 5 3 NNE - 9 -
24.03.2019 04:00:00 6,8 6,2 5 3 ESE 1022,9 10 0,0
24.03.2019 03:00:00 7,0 6,0 2 1 - - 9 -
24.03.2019 02:00:00 6,0 5,0 4 2 - - 10 -
24.03.2019 01:00:00 6,0 5,0 8 4 ENE 1023,2 10 -
24.03.2019 00:00:00 7,0 6,0 4 2 - - 10 -
23.03.2019 23:00:00 9,0 7,0 4 2 SSE - 10 -
23.03.2019 22:00:00 8,8 7,1 5 3 N 1023,0 10 0,0
23.03.2019 21:00:00 11,0 8,0 2 1 - - 10 -
23.03.2019 20:00:00 12,0 8,0 8 4 NE - 10 -
23.03.2019 19:00:00 13,1 5,9 11 6 NE 1021,9 10 -
23.03.2019 18:00:00 18,0 6,0 13 7 NE - 10 -
23.03.2019 17:00:00 19,0 7,0 16 9 NE - 10 -
23.03.2019 16:00:00 20,6 7,8 13 7 W 1021,6 10 0,0
23.03.2019 15:00:00 19,0 9,0 13 7 W - 10 -
23.03.2019 14:00:00 20,0 10,0 13 7 WNW - 10 -
23.03.2019 13:00:00 18,8 11,0 13 7 WNW 1023,0 10 -
23.03.2019 12:00:00 20,0 8,0 11 6 SSW - 10 -
23.03.2019 11:00:00 20,0 7,0 4 2 - - 10 -
23.03.2019 10:00:00 18,0 6,6 5 3 NE 1023,6 10 0,0
23.03.2019 09:00:00 14,0 7,0 8 4 N - 10 -
23.03.2019 08:00:00 10,0 7,0 4 2 - - 10 -
23.03.2019 07:00:00 7,3 5,8 4 2 - 1023,7 10 -
23.03.2019 06:00:00 8,0 5,0 15 8 NNE - 10 -
23.03.2019 05:00:00 9,0 4,0 8 4 N - 10 -
23.03.2019 04:00:00 8,4 4,9 9 5 N 1023,4 10 0,0
23.03.2019 03:00:00 8,0 5,0 11 6 NNE - 10 -
23.03.2019 02:00:00 9,0 6,0 9 5 NNE - 10 -
23.03.2019 01:00:00 8,8 7,0 8 4 NNE 1024,2 10 -
23.03.2019 00:00:00 9,0 6,0 11 6 NNE - 10 -
22.03.2019 23:00:00 11,0 8,0 11 6 NNE - 10 -
22.03.2019 22:00:00 10,2 6,9 9 5 NE 1024,9 10 0,0
22.03.2019 21:00:00 12,0 7,0 13 7 ENE - 10 -
22.03.2019 20:00:00 14,0 8,0 16 9 NNE - 10 -
22.03.2019 19:00:00 14,3 8,1 16 9 N 1023,9 10 -
22.03.2019 18:00:00 17,0 9,0 21 11 NNE - 10 -
22.03.2019 17:00:00 21,0 5,0 18 10 E - 10 -
22.03.2019 16:00:00 21,3 5,0 34 18 E 1022,8 10 0,0
22.03.2019 15:00:00 21,0 5,0 29 16 E - 10 -
22.03.2019 14:00:00 21,0 6,0 24 13 E - 10 -
22.03.2019 13:00:00 21,0 8,0 28 15 ENE - 10 -
22.03.2019 12:00:00 19,0 8,0 24 13 ENE - 10 -
22.03.2019 11:00:00 17,0 8,0 24 13 E - 10 -
22.03.2019 10:00:00 15,9 9,0 24 13 ENE 1025,0 10 0,0
22.03.2019 09:00:00 15,0 9,0 18 10 NE - 10 -
22.03.2019 08:00:00 12,0 8,0 8 4 NNE - 10 -
22.03.2019 07:00:00 7,6 5,5 4 2 - 1024,1 10 -
22.03.2019 06:00:00 8,0 5,0 4 2 - - 10 -
22.03.2019 05:00:00 7,0 4,0 2 1 - - 10 -
22.03.2019 04:00:00 7,5 4,7 8 4 NE 1023,4 10 0,0
22.03.2019 03:00:00 9,0 5,0 2 1 - - 10 -
22.03.2019 02:00:00 10,0 5,0 5 3 ENE - 10 -
22.03.2019 01:00:00 11,0 4,6 9 5 NE 1024,4 10 -
22.03.2019 00:00:00 9,0 5,0 13 7 NE - 10 -
21.03.2019 23:00:00 12,0 5,0 16 9 ENE - 10 -
21.03.2019 22:00:00 11,7 6,0 8 4 NW 1023,9 10 0,0
21.03.2019 21:00:00 12,0 7,0 11 6 NNE - 10 -
21.03.2019 20:00:00 13,0 7,0 11 6 N - 10 -
21.03.2019 19:00:00 13,3 6,2 13 7 NNE 1022,8 10 -
21.03.2019 18:00:00 16,0 5,0 15 8 ENE - 10 -
21.03.2019 17:00:00 16,0 6,0 29 16 NE - 10 -
21.03.2019 16:00:00 16,6 6,0 39 21 NE 1021,8 10 0,0
21.03.2019 15:00:00 17,0 6,0 34 18 NE - 10 -
21.03.2019 14:00:00 17,0 5,0 28 15 ENE - 10 -
21.03.2019 13:00:00 17,0 5,0 29 16 ENE 1023,4 10 -
21.03.2019 12:00:00 17,0 5,0 21 11 ENE - 10 -
21.03.2019 11:00:00 15,0 4,0 26 14 ENE - 10 -
21.03.2019 10:00:00 13,5 4,5 28 15 NE 1023,4 10 0,0
21.03.2019 09:00:00 11,0 4,0 18 10 NNE - 10 -
21.03.2019 08:00:00 10,0 3,0 22 12 NE - 10 -
21.03.2019 07:00:00 7,6 3,0 11 6 ENE 1022,9 10 -
21.03.2019 06:00:00 9,0 3,0 18 10 NE - 10 -
21.03.2019 05:00:00 10,0 3,0 28 15 ENE - 10 -
21.03.2019 04:00:00 10,2 3,6 21 11 NE 1022,6 10 0,0
21.03.2019 03:00:00 10,0 3,0 16 9 NNE - 10 -
21.03.2019 02:00:00 10,0 4,0 16 9 NNE - 10 -
21.03.2019 01:00:00 10,4 5,7 21 11 NE 1023,7 10 -
21.03.2019 00:00:00 11,0 6,0 16 9 NNE - 10 -
20.03.2019 23:00:00 11,0 5,0 18 10 NE - 10 -
20.03.2019 22:00:00 9,5 4,5 15 8 NE 1024,2 10 0,0
20.03.2019 21:00:00 10,0 5,0 11 6 ENE - 10 -
20.03.2019 20:00:00 11,0 5,0 18 10 NE - 10 -

tt = temperature
td = dewpoint
ff = wind speed
dd = wind direction
ppp = reduced air pressure
vv = visibility
rr = precipitation

Next stations